Regional Weather Roundup
Issued by NWS Albany, NY

Home | Current Version | Previous Version | Text Only | Print | Product List | Glossary On
Versions: 1 2 3 4 5 6 7 8 9 10 11 12 13 14 15 16 17 18 19 20 21 22 23 24 25 26 27 28 29 30 31 32 33 34 35 36 37 38 39 40 41 42 43 44 45 46 47 48 49 50
000
ASUS41 KALY 252110
RWRALY

NEW YORK STATE HOURLY WEATHER ROUNDUP
NATIONAL WEATHER SERVICE ALBANY NY
500 PM EDT SUN JUN 25 2017

NOTE: "FAIR" INDICATES FEW OR NO CLOUDS BELOW 12,000 FEET WITH NO
SIGNIFICANT WEATHER AND/OR NO OBSTRUCTIONS TO VISIBILITY.

NYZ032-033-038>043-046>054-057>066-NYZ062>081-082-084-252200-
EAST


CITY           SKY/WX    TMP DP  RH WIND       PRES   REMARKS
ALBANY         MOSUNNY   78  50  37 W13       29.89F
GLENS FALLS    MOSUNNY   77  50  38 W13G21    29.87S
POUGHKEEPSIE   MOSUNNY   77  57  50 S7        29.89
NEWBURGH       MOSUNNY   79  61  53 SW14      29.93S
MONTGOMERY     MOSUNNY   78  59  51 SW10      29.90F
ISLIP          PTSUNNY   76  57  51 SW9       29.93S
NEW YORK CITY  PTSUNNY   80  56  43 S12       29.92F
CENTRAL PARK   SUNNY     77  61  57 E5        29.95F
$$

NYZ005>009-017-018-044>046-055-056-252200-
CENTRAL


CITY           SKY/WX    TMP DP  RH WIND       PRES   REMARKS
FULTON         CLOUDY    67  52  58 CALM      29.93F
SYRACUSE       PTSUNNY   67  56  67 NW10      29.93S
ROME           CLOUDY    62  57  83 CALM      29.95R
ELMIRA         NOT AVBL
BINGHAMTON     MOSUNNY   70  48  46 NW10      29.96R
MONTICELLO     SUNNY     75  46  35 NW13G20   29.95F
$$

NYZ026>034-041>043-087-252200-
NORTH


CITY           SKY/WX    TMP DP  RH WIND       PRES   REMARKS
WATERTOWN      CLOUDY    71  50  47 W15G24    29.90F
FORT DRUM      NOT AVBL
OGDENSBURG     FAIR      70  54  57 W8G16     29.89S
MASSENA        LGT RAIN  58  55  90 N6        29.90R FOG
SARANAC LAKE   MOSUNNY   69  42  37 W13G28    29.90R
PLATTSBURGH    PTSUNNY   67  55  65 NE14      29.85S
$$

NYZ001>004-010>016-019>021-085-252200-
WEST


CITY           SKY/WX    TMP DP  RH WIND       PRES   REMARKS
NIAGARA FALLS  PTSUNNY   69  52  54 W13       29.94F
BUFFALO        PTSUNNY   70  49  47 W13G23    29.95S
DUNKIRK        MOSUNNY   69  54  58 W21G31    29.99R
JAMESTOWN      SUNNY     64  45  48 W21G29    30.01R
WELLSVILLE     LGT RAIN  63  50  62 NW10G25   30.02R
ROCHESTER      TSTM      58  54  86 SW5       29.97R FOG
PENN YAN       PTSUNNY   71  47  42 W8G17     29.95F
$$

             KEY
       WCI = WIND CHILL INDEX
       VSB = VISIBILITY
       HX  = HEAT INDEX
$$



USA.gov is the U.S. government's official web portal to all federal, state and local government web resources and services.